Regional Weather Roundup
Issued by NWS

Home | Current Version | Previous Version | Graphics & Text | Print | Product List | Glossary On
Versions: 1 2 3 4 5 6 7 8 9 10 11 12 13 14 15 16 17 18 19 20 21 22 23 24 25 26 27 28 29 30 31 32 33 34 35 36 37 38 39 40 41 42 43 44 45 46 47 48 49 50
000
ASUS43 KLSX 222059
RWRMO

WEATHER SUMMARY FOR MISSOURI
NATIONAL WEATHER SERVICE SPRINGFIELD MO
400 PM CDT FRI MAY 22 2015

NOTE: "FAIR" INDICATES FEW OR NO CLOUDS BELOW 12,000 FEET WITH NO
       SIGNIFICANT WEATHER AND/OR OBSTRUCTIONS TO VISIBILITY.
       CURRENT SKY AND/OR WEATHER CONDITIONS ARE NOT AVAILABLE FOR
       CHILLICOTHE AND FARMINGTON.

MOZ001>031-035>038-043-044-053-054-222200-
...NORTHERN AND WESTERN MISSOURI...

CITY           SKY/WX    TMP DP  RH WIND       PRES   REMARKS
KANSAS CTY INT CLOUDY    66  48  52 SE10      30.23S
KANSAS C DTWN  CLOUDY    68  45  43 SE7       30.22S
LEE`S SUMMIT   CLOUDY    65  47  52 SE9       30.23F
ST JOSEPH      CLOUDY    65  48  54 CALM      30.23F
KIRKSVILLE     CLOUDY    69  54  58 W5        30.23F

$$
MOZ066>068-077>081-088>096-101>105-222200-
...SOUTHWEST MISSOURI...

CITY           SKY/WX    TMP DP  RH WIND       PRES   REMARKS
SPRINGFIELD    CLOUDY    67  47  48 E7        30.24F
JOPLIN         CLOUDY    65  49  56 SE10      30.21F

$$
MOZ032>034-039>042-045>050-055>058-069>072-222200-
...CENTRAL MISSOURI...

CITY           SKY/WX    TMP DP  RH WIND       PRES   REMARKS
COLUMBIA       PTSUNNY   69  53  56 VRB3      30.24F
JEFFERSON CITY MOSUNNY   71  48  43 S7        30.24F
ROLLA          PTSUNNY   69  51  52 S3        30.25F
SEDALIA        PTSUNNY   67  50  54 SE6       30.26F
OSAGE BEACH    CLOUDY    70  46  43 S5        30.25S

$$
MOZ051-052-059>065-222200-
...EAST CENTRAL MISSOURI...

CITY           SKY/WX    TMP DP  RH WIND       PRES   REMARKS
ST LOUIS INTL  CLOUDY    73  49  42 W9        30.24S
SPIRIT OF STL  CLOUDY    71  52  50 W5        30.23S
ST CHARLES     CLOUDY    73  48  41 SW5       30.22F

$$
MOZ072>076-082>087-097>100-106>115-222200-
...SOUTH CENTRAL AND SOUTHEAST MISSOURI...

CITY           SKY/WX    TMP DP  RH WIND       PRES   REMARKS
CAPE GIRARDEAU MOSUNNY   71  51  49 W6        30.26F
FARMINGTON     MOSUNNY   70  48  46 SW7       30.29F
POPLAR BLUFF   MOSUNNY   71  46  40 CALM      30.25F
WEST PLAINS    CLOUDY    65  45  48 SE7       30.27F

$$



USA.gov is the U.S. government's official web portal to all federal, state and local government web resources and services.